Time,TemperatureF,DewpointF,PressureIn,WindDirection,WindDirectionDegrees,WindSpeedMPH,WindSpeedGustMPH,Humidity,HourlyPrecipIn,Conditions,Clouds,dailyrainin,SoftwareType,DateUTC
2013-01-08 00:00:00,23.0,-17.0,-100.00,WNW,287,8.0,11.0,15,-99.99,,,-99.99,,2013-01-08 07:00:00,
2013-01-08 00:42:00,23.0,-17.0,-100.00,WNW,287,8.0,11.0,15,-99.99,,,-99.99,,2013-01-08 07:42:00,
2013-01-08 00:52:00,23.0,-17.0,-100.00,WNW,287,8.0,11.0,15,-99.99,,,-99.99,,2013-01-08 07:52:00,
2013-01-08 01:00:00,24.0,-19.0,-100.00,WNW,288,7.0,11.0,13,-99.99,,,-99.99,,2013-01-08 08:00:00,
2013-01-08 01:42:00,24.0,-19.0,-100.00,WNW,288,7.0,11.0,13,-99.99,,,-99.99,,2013-01-08 08:42:00,
2013-01-08 01:53:00,24.0,-19.0,-100.00,WNW,288,7.0,11.0,13,-99.99,,,-99.99,,2013-01-08 08:53:00,
2013-01-08 02:00:00,24.0,-23.0,-100.00,WNW,303,7.0,12.0,11,-99.99,,,-99.99,,2013-01-08 09:00:00,
2013-01-08 02:42:00,24.0,-23.0,-100.00,WNW,303,7.0,12.0,11,-99.99,,,-99.99,,2013-01-08 09:42:00,
2013-01-08 02:52:00,24.0,-23.0,-100.00,WNW,303,7.0,12.0,11,-99.99,,,-99.99,,2013-01-08 09:52:00,
2013-01-08 03:00:00,23.0,-24.0,-100.00,WNW,289,10.0,14.0,10,-99.99,,,-99.99,,2013-01-08 10:00:00,
2013-01-08 03:42:00,23.0,-24.0,-100.00,WNW,289,10.0,14.0,10,-99.99,,,-99.99,,2013-01-08 10:42:00,
2013-01-08 03:52:00,23.0,-24.0,-100.00,WNW,289,10.0,14.0,10,-99.99,,,-99.99,,2013-01-08 10:52:00,
2013-01-08 04:00:00,23.0,-22.0,-100.00,West,265,7.0,14.0,12,-99.99,,,-99.99,,2013-01-08 11:00:00,
2013-01-08 04:42:00,23.0,-22.0,-100.00,West,265,7.0,14.0,12,-99.99,,,-99.99,,2013-01-08 11:42:00,
2013-01-08 04:53:00,23.0,-22.0,-100.00,West,265,7.0,14.0,12,-99.99,,,-99.99,,2013-01-08 11:53:00,
2013-01-08 05:00:00,23.0,-19.0,-100.00,West,263,6.0,10.0,14,-99.99,,,-99.99,,2013-01-08 12:00:00,
2013-01-08 05:43:00,23.0,-19.0,-100.00,West,263,6.0,10.0,14,-99.99,,,-99.99,,2013-01-08 12:43:00,
2013-01-08 05:53:00,23.0,-19.0,-100.00,West,263,6.0,10.0,14,-99.99,,,-99.99,,2013-01-08 12:53:00,
2013-01-08 06:00:00,22.0,-16.0,-100.00,SSW,207,2.0,5.0,16,-99.99,,,-99.99,,2013-01-08 13:00:00,
2013-01-08 06:43:00,22.0,-16.0,-100.00,SSW,207,2.0,5.0,16,-99.99,,,-99.99,,2013-01-08 13:43:00,
2013-01-08 06:53:00,22.0,-16.0,-100.00,SSW,207,2.0,5.0,16,-99.99,,,-99.99,,2013-01-08 13:53:00,
2013-01-08 07:00:00,22.0,-15.0,-100.00,NW,318,5.0,13.0,17,-99.99,,,-99.99,,2013-01-08 14:00:00,
2013-01-08 07:43:00,22.0,-15.0,-100.00,NW,318,5.0,13.0,17,-99.99,,,-99.99,,2013-01-08 14:43:00,
2013-01-08 07:53:00,22.0,-15.0,-100.00,NW,318,5.0,13.0,17,-99.99,,,-99.99,,2013-01-08 14:53:00,
2013-01-08 08:00:00,23.0,-13.0,-100.00,NNE,20,5.0,13.0,19,-99.99,,,-99.99,,2013-01-08 15:00:00,
2013-01-08 08:43:00,23.0,-13.0,-100.00,NNE,20,5.0,13.0,19,-99.99,,,-99.99,,2013-01-08 15:43:00,
2013-01-08 08:53:00,23.0,-13.0,-100.00,NNE,20,5.0,13.0,19,-99.99,,,-99.99,,2013-01-08 15:53:00,
2013-01-08 09:00:00,23.0,-1.0,-100.00,NNE,12,13.0,23.0,34,-99.99,,,-99.99,,2013-01-08 16:00:00,
2013-01-08 09:43:00,23.0,-1.0,-100.00,NNE,12,13.0,23.0,34,-99.99,,,-99.99,,2013-01-08 16:43:00,
2013-01-08 09:53:00,23.0,-1.0,-100.00,NNE,12,13.0,23.0,34,-99.99,,,-99.99,,2013-01-08 16:53:00,
2013-01-08 10:00:00,23.0,2.0,-100.00,NNE,24,13.0,26.0,38,-99.99,,,-99.99,,2013-01-08 17:00:00,
2013-01-08 10:43:00,23.0,2.0,-100.00,NNE,24,13.0,26.0,38,-99.99,,,-99.99,,2013-01-08 17:43:00,
2013-01-08 10:54:00,23.0,2.0,-100.00,NNE,24,13.0,26.0,38,-99.99,,,-99.99,,2013-01-08 17:54:00,
2013-01-08 11:00:00,25.0,4.0,-100.00,NNE,22,12.0,19.0,39,-99.99,,,-99.99,,2013-01-08 18:00:00,
2013-01-08 11:43:00,25.0,4.0,-100.00,NNE,22,12.0,19.0,39,-99.99,,,-99.99,,2013-01-08 18:43:00,
2013-01-08 11:53:00,25.0,4.0,-100.00,NNE,22,12.0,19.0,39,-99.99,,,-99.99,,2013-01-08 18:53:00,
2013-01-08 12:00:00,27.0,3.0,-100.00,NNE,16,10.0,16.0,35,-99.99,,,-99.99,,2013-01-08 19:00:00,
2013-01-08 12:43:00,27.0,3.0,-100.00,NNE,16,10.0,16.0,35,-99.99,,,-99.99,,2013-01-08 19:43:00,
2013-01-08 12:53:00,27.0,3.0,-100.00,NNE,16,10.0,16.0,35,-99.99,,,-99.99,,2013-01-08 19:53:00,
2013-01-08 13:00:00,28.0,1.0,-100.00,NNE,12,15.0,27.0,31,-99.99,,,-99.99,,2013-01-08 20:00:00,
2013-01-08 13:43:00,28.0,1.0,-100.00,NNE,12,15.0,27.0,31,-99.99,,,-99.99,,2013-01-08 20:43:00,
2013-01-08 13:54:00,28.0,1.0,-100.00,NNE,12,15.0,27.0,31,-99.99,,,-99.99,,2013-01-08 20:54:00,
2013-01-08 14:00:00,28.0,2.0,-100.00,North,10,15.0,25.0,32,-99.99,,,-99.99,,2013-01-08 21:00:00,
2013-01-08 14:43:00,28.0,2.0,-100.00,North,10,15.0,25.0,32,-99.99,,,-99.99,,2013-01-08 21:43:00,
2013-01-08 14:53:00,28.0,2.0,-100.00,North,10,15.0,25.0,32,-99.99,,,-99.99,,2013-01-08 21:53:00,
2013-01-08 15:00:00,28.0,2.0,-100.00,North,11,16.0,29.0,32,-99.99,,,-99.99,,2013-01-08 22:00:00,
2013-01-08 15:43:00,28.0,2.0,-100.00,North,11,16.0,29.0,32,-99.99,,,-99.99,,2013-01-08 22:43:00,
2013-01-08 15:53:00,28.0,2.0,-100.00,North,11,16.0,29.0,32,-99.99,,,-99.99,,2013-01-08 22:53:00,
2013-01-08 16:00:00,27.0,2.0,-100.00,North,11,14.0,25.0,32,-99.99,,,-99.99,,2013-01-08 23:00:00,
2013-01-08 16:43:00,27.0,2.0,-100.00,North,11,14.0,25.0,32,-99.99,,,-99.99,,2013-01-08 23:43:00,
2013-01-08 16:53:00,27.0,2.0,-100.00,North,11,14.0,25.0,32,-99.99,,,-99.99,,2013-01-08 23:53:00,
2013-01-08 17:00:00,26.0,2.0,-100.00,NNE,18,12.0,18.0,34,-99.99,,,-99.99,,2013-01-09 00:00:00,
2013-01-08 17:43:00,26.0,2.0,-100.00,NNE,18,12.0,18.0,34,-99.99,,,-99.99,,2013-01-09 00:43:00,
2013-01-08 17:53:00,26.0,2.0,-100.00,NNE,18,12.0,18.0,34,-99.99,,,-99.99,,2013-01-09 00:53:00,
2013-01-08 18:00:00,25.0,1.0,-100.00,NNE,17,12.0,18.0,36,-99.99,,,-99.99,,2013-01-09 01:00:00,
2013-01-08 18:43:00,25.0,1.0,-100.00,NNE,17,12.0,18.0,36,-99.99,,,-99.99,,2013-01-09 01:43:00,
2013-01-08 18:52:00,25.0,1.0,-100.00,NNE,17,12.0,18.0,36,-99.99,,,-99.99,,2013-01-09 01:52:00,
2013-01-08 19:00:00,23.0,1.0,-100.00,NNE,18,15.0,21.0,38,-99.99,,,-99.99,,2013-01-09 02:00:00,
2013-01-08 19:43:00,23.0,1.0,-100.00,NNE,18,15.0,21.0,38,-99.99,,,-99.99,,2013-01-09 02:43:00,
2013-01-08 19:53:00,23.0,1.0,-100.00,NNE,18,15.0,21.0,38,-99.99,,,-99.99,,2013-01-09 02:53:00,
2013-01-08 20:00:00,22.0,1.0,-100.00,NNE,21,16.0,22.0,39,-99.99,,,-99.99,,2013-01-09 03:00:00,
2013-01-08 20:43:00,22.0,1.0,-100.00,NNE,21,16.0,22.0,39,-99.99,,,-99.99,,2013-01-09 03:43:00,
2013-01-08 20:53:00,22.0,1.0,-100.00,NNE,21,16.0,22.0,39,-99.99,,,-99.99,,2013-01-09 03:53:00,
2013-01-08 21:00:00,22.0,1.0,-100.00,NNE,32,18.0,26.0,41,-99.99,,,-99.99,,2013-01-09 04:00:00,
2013-01-08 21:43:00,22.0,1.0,-100.00,NNE,32,18.0,26.0,41,-99.99,,,-99.99,,2013-01-09 04:43:00,
2013-01-08 21:52:00,22.0,1.0,-100.00,NNE,32,18.0,26.0,41,-99.99,,,-99.99,,2013-01-09 04:52:00,
2013-01-08 22:00:00,23.0,0.0,-100.00,NNE,31,17.0,24.0,36,-99.99,,,-99.99,,2013-01-09 05:00:00,
2013-01-08 22:43:00,23.0,0.0,-100.00,NNE,31,17.0,24.0,36,-99.99,,,-99.99,,2013-01-09 05:43:00,
2013-01-08 22:53:00,23.0,0.0,-100.00,NNE,31,17.0,24.0,36,-99.99,,,-99.99,,2013-01-09 05:53:00,
2013-01-08 23:00:00,23.0,-1.0,-100.00,NNE,22,16.0,22.0,34,-99.99,,,-99.99,,2013-01-09 06:00:00,
2013-01-08 23:42:00,23.0,-1.0,-100.00,NNE,22,16.0,22.0,34,-99.99,,,-99.99,,2013-01-09 06:42:00,
2013-01-08 23:52:00,23.0,-1.0,-100.00,NNE,22,16.0,22.0,34,-99.99,,,-99.99,,2013-01-09 06:52:00,